Regional Weather Roundup
Issued by NWS

Home | Current Version | Previous Version | Graphics & Text | Print | Product List | Glossary On
Versions: 1 2 3 4 5 6 7 8 9 10 11 12 13 14 15 16 17 18 19 20 21 22 23 24 25 26 27
000
ASUS45 KSLC 232310
RWRUT

UTAH REGIONAL WEATHER ROUNDUP
NATIONAL WEATHER SERVICE SALT LAKE CITY UT
400 PM MST THU FEB 23 2017

UTZ001>011-023>025-240000-

NORTHERN UTAH

CITY           SKY/WX    TMP DP  RH WIND       PRES   REMARKS
BRIGHAM CITY     N/A     31  26  82 N13       29.82R WCI  21
HILL AFB       FLURRIES  30  19  64 W15       29.80R WCI  19
LOGAN          CLOUDY    31  25  78 W10       29.80R WCI  22
OGDEN          CLOUDY    31  21  66 W12       29.80S WCI  22
SALT LAKE CITY FLURRIES  31  23  72 W12       29.84R WCI  22
TOOELE VALLEY  CLOUDY    34  23  64 W13       29.85S WCI  25
WENDOVER       CLOUDY    37  12  35 NW17G26   29.84R WCI  28
HEBER CITY     CLOUDY    30  16  55 SW10      29.74R WCI  21
WEST JORDAN    CLOUDY    32  30  92 CALM      29.84R

$$

UTZ011>015-024>027-240000-

CENTRAL/NORTHEAST UTAH

CITY           SKY/WX    TMP DP  RH WIND       PRES   REMARKS
PROVO AIRPORT  HVY SNOW  30  25  80 CALM      29.85R VSB 1/4
MOAB/CANYONLAN   N/A     42   9  25 W17       29.71R
DELTA          PTSUNNY   30  28  93 E9        29.84S WCI  22
PRICE            N/A     32  11  41 NW20G25   29.71R WCI  20
ROOSEVELT        N/A     32  25  74 N5        29.71R WCI  27
VERNAL         FLURRIES  27  24  89 E7        29.71R WCI  19

$$

UTZ013>016-019>022-027-240000-

SOUTHERN UTAH

CITY           SKY/WX    TMP DP  RH WIND       PRES   REMARKS
BRYCE CANYON     N/A     26   4  38 NW10G20   29.76S WCI  16
CEDAR CITY     PTSUNNY   32  14  47 NW10      29.80S WCI  24
MILFORD          N/A     33  23  66 S13       29.81R WCI  24
ST GEORGE      CLOUDY    48  11  22 SW9       29.87R
HANKSVILLE       N/A     43   5  21 N12G21    29.77R
BLANDING         N/A     37  -3  18 SW13      29.80R WCI  28

$$

REGIONAL REPORTS     COLORADO/ARIZONA

CITY           SKY/WX    TMP DP  RH WIND       PRES   REMARKS
CRAIG, CO      CLOUDY    27  15  61 W16       29.65R WCI  15
GRAND JUNCTION CLOUDY    39  15  37 NW13      29.70R WCI  31
RIFLE, CO        N/A     32  16  51 W7        29.70R WCI  26
MONTROSE, CO     N/A     37   3  24 W16G23    29.71R WCI  28
CORTEZ, CO     PTSUNNY   37   6  27 W15       29.74R WCI  28
COLORADO CITY    N/A     43   9  24 NW9G21    29.86F
PAGE, AZ         N/A     46 -13   8 W13G31    29.78S
GRAND CANYON   PTSUNNY   35  11  36 W12G17    29.80S WCI  27
KINGMAN, AZ      N/A     50 -18   5 W14G22    29.89S
FLAGSTAFF, AZ  CLOUDY    37  14  38 SW20G26   29.80R WCI  27

$$

REGIONAL REPORTS    NEVADA/IDAHO/WYOMING

CITY           SKY/WX    TMP DP  RH WIND       PRES   REMARKS
LAS VEGAS, NV    N/A     54   6  14 E8        29.88F
ELY, NY        CLOUDY    24  16  71 NE5       29.84R WCI  18
ELKO, NV       CLOUDY    31  12  45 NW14      29.91R WCI  21
POCATELLO, ID  SNOW      26  24  92 SW22      29.79R VSB 1/2 WCI  12
BURLEY, ID     LGT SNOW  28  23  81 SW18G26   29.83R VSB 1   WCI  15
FORT BRIDGER,  CLOUDY    24  22  92 W22G28    29.70R FOG     WCI   8
EVANSTON, WY   CLOUDY    20  13  74 SW20      29.69R WCI   4
ROCK SPRINGS,  LGT SNOW  22  16  78 N22       29.64R WCI   6

$$




USA.gov is the U.S. government's official web portal to all federal, state and local government web resources and services.